Flag for U.S.A. Weather past 2 weeks in Jacksonville, Florida, U.S.A.

Now
73 °F

Passing clouds.


Feels Like: 75 °F
Forecast: 67 / 87 °F
Wind: 7 mph from Southeast

Location: Jacksonville Naval Air Station

Current Time: Apr 25, 2015 at 2:40:40 AM

Latest Report: Apr 25, 2015 at 1:53 AM


Visibility: 10 mi

Pressure: 29.96 "Hg

Humidity: 71%

Dew point: 63 °F

Location of JacksonvilleLocation

Historic Weather in Jacksonville — Graph

°F

Jacksonville temperature yesterday

Maximum temperature yesterday: 78 °F (at 11:53 AM)
Minimum temperature yesterday: 71 °F (at 8:53 PM)
Average temperature yesterday: 74 °F

Past Weeks' High & Low Weather Summary

 TemperatureHumidityPressure
High92 °F (Apr 18, 4:53 PM)88% (Apr 13, 5:53 AM)30.17 "Hg (Apr 13, 5:53 AM)
Low67 °F (Apr 17, 9:53 AM)26% (Apr 23, 4:53 PM)29.79 "Hg (Apr 20, 6:53 PM)
Average77 °F68%30.02 "Hg
* Reported Apr 10 12:53 AM — Apr 25 12:53 AM, Jacksonville, Weather by CustomWeather, © 2015

Note: Actual official high and low records may vary slightly from our data, if they occured in-between our weather recording intervals... More about our weather records

Advertising

Jacksonville weather history for previous 24 hours

 ConditionsComfort  
Time TempWeatherWind HumidityBarometerVisibility
12:53 AM
Sat, Apr 25
72 °FPassing clouds.5 mph73%29.98 "Hg10 mi
11:53 PM
Fri, Apr 24
71 °FPassing clouds.6 mph71%29.98 "Hg10 mi
10:53 PM71 °FPassing clouds.8 mph66%29.97 "Hg10 mi
9:53 PM71 °FPartly cloudy.10 mph59%29.99 "Hg10 mi
8:53 PM71 °FPartly sunny.9 mph55%30.00 "Hg10 mi
7:53 PM72 °FPartly sunny.8 mph53%30.01 "Hg10 mi
6:53 PM75 °FPartly sunny.12 mph42%29.99 "Hg10 mi
5:53 PM76 °FScattered clouds.8 mph43%30.01 "Hg10 mi
4:53 PM77 °FScattered clouds.10 mph40%30.00 "Hg10 mi
3:53 PM78 °FScattered clouds.13 mph40%30.01 "Hg10 mi
2:53 PM78 °FPartly sunny.14 mph42%30.02 "Hg10 mi
1:53 PM78 °FScattered clouds.14 mph39%30.03 "Hg10 mi
12:53 PM77 °FPartly sunny.13 mph40%30.03 "Hg10 mi
11:53 AM78 °FScattered clouds.15 mph37%30.03 "Hg10 mi
10:53 AM77 °FPassing clouds.14 mph40%30.04 "Hg10 mi
9:53 AM75 °FScattered clouds.16 mph40%30.02 "Hg10 mi
8:53 AM74 °FScattered clouds.13 mph41%30.01 "Hg10 mi
7:53 AM72 °FScattered clouds.18 mph48%29.97 "Hg10 mi
6:53 AM73 °FPassing clouds.17 mph57%29.95 "Hg10 mi
5:53 AM73 °FPassing clouds.14 mph62%29.93 "Hg10 mi
4:53 AM72 °FPassing clouds.6 mph66%29.92 "Hg10 mi
3:53 AM72 °FPassing clouds.6 mph68%29.91 "Hg10 mi
2:53 AM73 °FPassing clouds.5 mph74%29.90 "Hg10 mi
Weather by CustomWeather, © 2015

See weather overviewHow to use our weather pages